Location: Saint-Usage
(47.1052°N, 5.2587°E)
Time: 08:43:46
(UTC+01:00)

NOAA 19 - Pass Details

Date: 07 December 2021
Orbit: 841 x 860 km, 99.2° (Epoch: 26 January)

Event Time Altitude Azimuth Distance (km) Brightness Sun altitude
Rises 17:19:51 0° 105° (ESE) 3,396 7.9 -5.3°
Reaches altitude 10° 17:23:27 10° 80° (E) 2,468 7.0 -5.8°
Maximum altitude 17:26:00 14° 52° (NE) 2,231 6.8 -6.2°
Drops below altitude 10° 17:28:32 10° 24° (NNE) 2,479 7.2 -6.6°
Sets 17:32:10 0° 359° (N) 3,424 8.1 -7.1°
